This is the latest recevied weather packets stored in our database for station/object IU2PLZ-10. If no packets are shown the sender has not sent any weather packets the latest 10 day(s).
| Time | Temp. | Humidity | Pressure | Rain* | Wind** | Luminosity | Snow |
|---|---|---|---|---|---|---|---|
| 1787809403 | 31.11° C | 70% | 969.5 hPa | - | - | - | - |
| 1787808503 | 31.11° C | 67% | 969.7 hPa | - | - | - | - |
| 1787807602 | 31.11° C | 62% | 969.7 hPa | - | - | - | - |
| 1787806702 | 31.11° C | 61% | 968.7 hPa | - | - | - | - |
| 1787805802 | 31.67° C | 58% | 969.6 hPa | - | - | - | - |
| 1787804902 | 32.22° C | 55% | 969 hPa | - | - | - | - |
| 1787804002 | 32.78° C | 52% | 969.8 hPa | - | - | - | - |
| 1787803102 | 32.22° C | 51% | 968.7 hPa | - | - | - | - |
| 1787802202 | 32.78° C | 52% | 970.1 hPa | - | - | - | - |
| 1787801301 | 32.78° C | 51% | 969.3 hPa | - | - | - | - |
| 1787800401 | 33.33° C | 44% | 970.3 hPa | - | - | - | - |
| 1787799501 | 32.78° C | 47% | 968.8 hPa | - | - | - | - |
| 1787798601 | 32.22° C | 49% | 968 hPa | - | - | - | - |
| 1787797701 | 32.22° C | 48% | 968.3 hPa | - | - | - | - |
| 1787796800 | 32.78° C | 48% | 969.2 hPa | - | - | - | - |
| 1787795900 | 32.78° C | 47% | 969 hPa | - | - | - | - |
| 1787795000 | 32.78° C | 46% | 968.7 hPa | - | - | - | - |
| 1787794100 | 32.78° C | 47% | 968.7 hPa | - | - | - | - |
| 1787792306 | 33.33° C | 46% | 968.7 hPa | - | - | - | - |
| 1787791399 | 32.78° C | 47% | 969 hPa | - | - | - | - |
| 1787790499 | 32.78° C | 49% | 968.9 hPa | - | - | - | - |
| 1787789599 | 32.78° C | 53% | 968.9 hPa | - | - | - | - |
| 1787788699 | 32.78° C | 54% | 968.9 hPa | - | - | - | - |
| 1787787799 | 31.67° C | 60% | 968.2 hPa | - | - | - | - |
| 1787786899 | 32.22° C | 63% | 969.2 hPa | - | - | - | - |
* Rain since midnight (hover to see other rain measurements)
** Current wind speed in m/s (hover to see current wind gust speed)